Cloud_Cover
100 97 100 100 100 100 95 2 0 0 0 0 0 3 12 5 4 0 0 0 0 6 12 71 0 5 46 15 1 0 4 0 0
38 3 0 55 86 8 100 75 5 0 0 0 0 0 0 4 3 0 0 0 0 0 17 69 55 100 100 72 100 0 0 0 0
0 0 0 23 1 99 100 100 97 4 0 1 0 0 0 0 0 0 0 0 0 0 18 47 55 100 100 100 42 0 1 0 0
0 0 0 0 54 100 100 100 100 100 100 25 4 0 0 6 0 0 0 0 0 9 73 92 39 93 4 1 0 0 0 0 0
0 0 0 0 0 100 100 100 100 100 100 100 7 4 5 1 0 0 0 0 31 1 1 7 93 100 100 100 72 41 7 18 96
0 0 0 0 0 70 100 100 100 69 93 62 8 5 0 0 0 0 0 0 2 100 3 9 96 100 100 100 100 100 100 100 100
0 0 0 0 0 0 0 13 51 56 30 5 5 0 0 0 0 0 0 0 0 46 18 100 100 100 100 100 100 100 100 100 100
0 0 8 7 0 0 0 0 0 2 3 1 0 0 0 0 0 0 0 0 0 0 0 100 100 99 100 100 100 100 100 100 100
0 0 0 0 0 0 0 0 0 0 0 0 0 0 0 0 0 0 0 0 0 0 4 22 100 100 100 100 100 100 100 100 88
0 0 0 0 0 0 0 0 0 0 0 0 0 0 0 0 0 0 2 3 0 9 0 0 6 100 100 100 100 100 100 100 99
0 0 0 0 0 0 0 0 0 0 0 0 0 0 0 0 0 1 60 7 4 14 19 0 4 66 100 100 100 100 100 100 97
0 0 0 0 0 0 0 0 0 0 0 0 0 1 0 0 0 2 5 6 5 4 8 5 0 0 25 76 100 100 100 100 100
0 0 0 0 0 0 0 0 0 0 0 0 0 5 6 0 1 5 5 5 5 5 1 0 0 0 0 0 11 100 100 100 100
0 0 0 0 0 0 0 0 0 0 0 0 0 0 1 6 26 35 1 0 0 0 0 0 0 0 0 0 2 41 100 100 100
0 0 0 0 0 0 0 0 0 0 0 0 0 0 0 0 0 1 0 0 0 0 0 3 0 0 0 0 0 34 8 69 100
0 0 0 0 0 0 0 0 0 0 0 0 0 0 0 0 0 0 0 0 0 0 0 11 0 0 0 0 0 0 10 12 84
0 0 0 0 0 0 0 0 0 0 0 0 0 0 0 0 0 0 0 0 0 0 0 0 0 4 0 0 0 0 0 0 3
0 0 0 0 0 0 0 0 0 0 0 0 0 0 0 0 0 0 0 0 0 0 0 0 0 0 0 0 0 0 10 0 0
0 0 0 0 0 0 0 0 0 0 0 0 0 0 0 0 0 0 0 0 0 0 0 0 0 0 0 0 0 0 73 54 100
0 0 0 0 0 0 0 0 0 0 0 0 0 0 0 0 0 0 0 0 0 0 0 0 0 11 0 0 0 0 57 100 100